STARLINK-32629, 62150

Orbit data source: Space-Track

STARLINK-32629, 62150 is a payload satellite owned by SpaceX/Seattle (US) in LEO that was launched on Sat, 30 Nov 2024 UTC via an FALCON 9 launch vehicle from the Air Force Eastern Test Range (AFETR). Payload-class satellites include a variety of spacecraft equipped with specific instruments for various scientific and technological missions. These include communications satellites like Starlink; space stations such as the ISS; scientific satellites like the Hubble; Earth observation satellites from companies like Planet Labs, Umbra, and HawkEye 360; GPS; miniature CubeSats for education and research; and military/defense satellites.

Loading next visibility...
Identifier
62150, 2024-224M
Orbit
LEO
Country
Flag of USUS
Related business
Manufacturer
SpaceX/Seattle
Mission
Operational Commercial Communications
Bus & Motor
STARLINK V2M, Unknown motor
Mass
730 kg wet, ~700 kg dry
Launch date (UTC)
2024-11-30 (1 year ago)
Launch vehicle
FALCON 9
Launch site
Air Force Eastern Test Range (AFETR)
Object type
Payload
Rocket body
Debris
Shape & HBR
Box + 2 Pan, 17.7 m
Radar Cross Section
33.884 m², Large (>1 m²)

Expand to show TLE details & history
Last TLE update: 21 hours ago

TLE from 21 hours ago
0 STARLINK-32629
1 62150U 24224M   25348.81185244  .00014170  00000-0  52358-3 0  9992
2 62150  42.9981 277.0575 0000665 280.7281  79.3496 15.27572296 59500
Epoch: 2025-12-14T19:29Z
TLE epoch observation values (Epoch: 2025-12-14T19:29:04.050Z)
Latitude
-0.00001°
Longitude
-98.92879°
Altitude
482.763 km
Speed
7.626 km/s
True Right ascension
18h 28m 13s
True Declination
0° 00' 00"
Sunlit
Object was in daylight at epoch
Visualization orbit readout
Latitude
Unknown
Longitude
Unknown
Altitude
Unknown
Speed
Unknown
Apparent Right ascension
Unknown
Apparent Declination
Unknown
Sunlit
N/A
Visualization observer readout
Local Sidereal Time
15:11:09
Azimuth
Unknown
Elevation
Unknown
Doppler factor
Unknown
Orbital elements
Apogee altitude
485.474 km
Perigee altitude
484.561 km
Semi-major axis
6,863.155 km
Eccentricity
0.00007
Inclination
42.9981°
RAAN
277.0575°
Arg. of periapsis
280.7281°
True anomaly
79.35709°
Mean anomaly
79.3496°
Eccentric anomaly
79.35334°
Mean motion
3.81731 °/min
Orbital period
94.31 mins
BSTAR
0.00052358
Loading maneuver chart data...
Computing Atmospheric mass density...
Loading historical data...
Loading historical data...
Loading historical data...
Loading historical data...
Loading historical data...
Loading historical data...
Loading historical data...

Documentation

Showing up to 5 results
|